close

Jackpot

Texas Poker Multi Jackpot System

Kini Telah hadir Jackpot SUPER ROYAL FLUSH

Kini Telah hadir Jackpot 2000 (khusus table VIP keatas).

Ikutilah global jackpot yang tersedia di system kami, dengan system jackpot terbaru dan pertama di indonesia, anda dapat membeli jackpot dengan harga 100 rupiah saja dan menangkan hadiahnya hingga puluhan juta rupiah.

Jackpot bukanlah suatu keharusan untuk dibeli, namun kami memberikan suatu fitur tambahan untuk member tercinta dari www.poker868.com.

Terdapat tiga pilihan harga jackpot yang bisa anda beli yaitu :100,500,1000 dan 2000(khusus table VIP Keatas) rupiah.

Hadiah dari Multi jackpot system www.poker868.com

  1. full house x 10 harga jackpot yang anda beli.
      (contoh:anda membeli 1000 maka:1000 X10 = 10.000)
  2. four of kind x 250 harga jackpot yang anda beli
      (contoh:anda membeli 1000 maka:1000 X250 = 250.000)
  3. Straight flush x 1200
      (contoh:anda membeli 1000 maka:1000 X1200 = 1.200.000)
  4. Royal flush x 10000 harga jackpot yang anda beli
      (contoh:anda membeli 1000 maka:1000 X10000 = 10.000.000)
  5. SUPER ROYAL FLUSH x 30000 harga jackpot yang anda beli
      (contoh:anda membeli 1000 maka:1000 X30000 = 30.000.000)

Kondisi kartu

  1. full house adalah kondisi kartu dimana kartu anda dan kartu tengah dengan total 7 kartu bisa mendapatkan nilai 5 kartu dengan kombinasi 1 tris(three of kind) dan 1 pair, contoh 3 kartu 10 dan 2 kartu 5
  2. Four of kind adalah kondisi kartu dimana kartu anda dan kartu tengah dengan total 7 kartu bisa mendapatkan nilai 5 kartu dengan kombinasi 4 kartu yang sama jumlah dan 1 kartu apapun juga contoh anda mendapatkan 4 buah kartu angka 3 dan 1 kartu apapun.
  3. Staright flush adalah kondisi kartu dimana kartu anda dan kartu tengah dengan total 7 kartu bisa mendapatkan nilai 5 kartu dengan kombinasi seri / staright dengan kembang yang sama contoh : urutan kartu dari angka 5, 6, 7, 8 , 9 10 dengan kembang yg sama misalnya as hati
  4. Royal flush adalah kondisi kartu dimana kartu anda dan kartu tengah dengan total 7 kartu bisa mendapatkan nilai 5 kartu dengan kombinasi seri / staright dengan kembang yang sama tetapi kartu tersebut haruslah dimulai dari 10. contoh 10, Queen, Jack, King dan aces dengan kembang yang sama
  5. Super Royal flush adalah kondisi kartu dimana Kedua kartu anda digabung dengan 3 kartu pertama meja haruslah royal flush. contoh kartu anda 10,Queen kembang sama dan 3 kartu pertama meja adalah Jack, King dan aces dengan kembang yang sama

Demikian adalah penjelasan dari Multi Jackpot www.poker868.com terima kasih dan selamat bermain salam hoki dari kami

Texas Poker Jackpot Winner

TOP SUPER ROYAL FLUSH
No.TanggalNamaPriceWin
123/07 02:27TOENK06Super Royal flush15,000,000
222/07 22:22R3FILSuper Royal flush60,000,000
322/07 21:12WIL9Super Royal flush15,000,000
422/07 16:35T4D0015761Super Royal flush6,000,000
522/07 13:28CASKIN7SSuper Royal flush3,000,000
TOP ROYAL FLUSH
No.TanggalNamaPriceWin
123/07 03:55ROMIKANYAIRoyal flush5,000,000
223/07 03:34SNOWQUEENFRoyal flush5,000,000
323/07 03:32BUYUUTT99Royal flush2,000,000
423/07 03:26ASAFA98Royal flush2,000,000
523/07 03:24D67971BARoyal flush2,000,000
TOP STRAIGHT FLUSH
No.TanggalNamaPriceWin
123/07 04:45F6E6BB21Straight Flush1,200,000
223/07 04:45AANKACUL39Straight Flush2,400,000
323/07 04:43RAPYOUBAEStraight Flush1,200,000
423/07 04:41NUANSAA__Straight Flush600,000
523/07 04:35COLILAH2Straight Flush600,000
LATEST JACKPOT
No.TanggalNamaPriceWin
123/07 04:46SAMUR41Full House10,000
223/07 04:46RAJAKITA26Full House10,000
323/07 04:46VAUKAU_70Four Of A Kind50,000
423/07 04:46C5FA2D3BFull House2,000
523/07 04:46DANIFC08Full House2,000
623/07 04:46NASI95Full House2,000
723/07 04:46YAYAHFull House2,000
823/07 04:46EPHHE88Full House20,000
923/07 04:46WAK_BOY123Full House5,000
1023/07 04:46ED8093C8Full House2,000
1123/07 04:45MUWVERFull House10,000
1223/07 04:45N3NG96Full House20,000
1323/07 04:45BRIPKA11Full House500
1423/07 04:45JASUN01Full House2,000
1523/07 04:45RONYKAMARRFull House500
1623/07 04:45ENDIS08Full House10,000
1723/07 04:45C4L_Y4Full House2,000
1823/07 04:45BRUST369Full House5,000
1923/07 04:45THIAN16Full House10,000
2023/07 04:45JELI02Full House5,000
2123/07 04:45MAYA1978Four Of A Kind250,000
2223/07 04:45ZANKY212Full House2,000
2323/07 04:45GOLDCUP11Full House2,000
2423/07 04:45COSLET873Full House2,000
2523/07 04:45F6E6BB21Straight Flush1,200,000
2623/07 04:45LONEGOBELFour Of A Kind50,000
2723/07 04:45TOMO_WIN78Full House5,000
2823/07 04:45T4D0015390Full House5,000
2923/07 04:45KINTAN8883Full House1,000
3023/07 04:45TSINDIFull House2,000
3123/07 04:45RHEGHEAFull House2,000
3223/07 04:45KOBUL09Full House2,000
3323/07 04:45DEPOMANJANFull House2,000
3423/07 04:45FRNKSTN22Full House10,000
3523/07 04:45JANCOKK999Full House1,000
3623/07 04:45RIMBUN88Full House1,000
3723/07 04:45ANISSA026Full House5,000
3823/07 04:45AANKACUL39Straight Flush2,400,000
3923/07 04:45TENALRR55Full House5,000
4023/07 04:45ALDINDIE17Full House2,000
4123/07 04:45TAPAKMACANFull House5,000
4223/07 04:45KAL1ANDAFull House20,000
4323/07 04:44SGNMNGJP88Full House2,000
4423/07 04:44TEMPIK01Full House2,000
4523/07 04:44BA682E55Full House1,000
4623/07 04:44HENDIBELEKFull House2,000
4723/07 04:44B4MA08Full House5,000
4823/07 04:44TAMBAH300Full House1,000
4923/07 04:44ZEK123Full House2,000
5023/07 04:44MURE37Full House1,000

Domino Multi Jackpot System

Ikutilah global jackpot yang tersedia di system kami, dengan system jackpot terbaru dan pertama di indonesia, anda dapat membeli jackpot dengan harga 100 rupiah saja dan menangkan hadiahnya hingga puluhan juta rupiah.

Jackpot bukanlah suatu keharusan untuk dibeli, namun kami memberikan suatu fitur tambahan untuk member tercinta dari www.poker868.com.

Terdapat tiga pilihan harga jackpot yang bisa anda beli yaitu :100,500 dan 1000 rupiah.

Hadiah dari Multi jackpot system www.poker868.com

  1. Murni Kecil x 50 harga jackpot yang anda beli.
      (contoh:anda membeli 1000 maka:1000 X 50 = 50.000)
  2. Murni Besar x 50 harga jackpot yang anda beli
      (contoh:anda membeli 1000 maka:1000 X 50 = 50.000)
  3. BALAK x 100 harga jackpot yang anda beli
      (contoh:anda membeli 1000 maka:1000 X 100 = 100.000)
  4. ENAM DEWA x 6666 harga jackpot yang anda beli
      (contoh:anda membeli 1000 maka:1000 X 6666 = 6.666.000)

Demikian adalah penjelasan dari Multi Jackpot www.poker868.com terima kasih dan selamat bermain salam hoki dari kami

Domino Jackpot Winner

TOP ENAM DEWA
No.TanggalNamaPriceWin
123/07 04:08SBQ19murni enam6,666,000
223/07 03:53KALVENOmurni enam666,600
323/07 03:04YXYNO3VZHWmurni enam3,333,000
423/07 01:20QQ_BOmurni enam6,666,000
522/07 20:50RATIH357murni enam3,333,000
TOP BALAK
No.TanggalNamaPriceWin
123/07 04:44EFINbalak10,000
223/07 04:43LIEMSAMKOKbalak100,000
323/07 04:41AGUNG99balak10,000
423/07 04:40ANAKGODAKbalak100,000
523/07 04:40C4SSPERbalak100,000
LATEST JACKPOT
No.TanggalNamaPriceWin
123/07 04:46BEBEC98murni besar50,000
223/07 04:45BARONGEmurni besar25,000
323/07 04:45HAJARWIN28murni besar50,000
423/07 04:44EFINbalak10,000
523/07 04:43GUSEMONmurni besar50,000
623/07 04:43ACAB13murni besar25,000
723/07 04:43LIEMSAMKOKbalak100,000
823/07 04:41JAROT_811murni kecil50,000
923/07 04:41TUSOR34murni kecil25,000
1023/07 04:41AGUNG99balak10,000
1123/07 04:40ANAKGODAKbalak100,000
1223/07 04:40C4SSPERbalak100,000
1323/07 04:39TUBAGU521murni besar50,000
1423/07 04:39V1T48RU2IImurni kecil5,000
1523/07 04:39G4G4P44murni besar5,000
1623/07 04:38THOM420murni besar50,000
1723/07 04:38MASDCmurni kecil50,000
1823/07 04:38PENJAHIT89murni kecil5,000
1923/07 04:38LONEGOBELmurni kecil5,000
2023/07 04:37DJARIEL84murni kecil25,000
2123/07 04:37NAKEL23balak100,000
2223/07 04:37ELYAMAN01murni besar25,000
2323/07 04:35CUTEH87murni kecil25,000
2423/07 04:35MITO05lucky9910,000
2523/07 04:35LUBIES20balak50,000
2623/07 04:35RTWSAmurni kecil25,000
2723/07 04:35KUYAT07murni kecil50,000
2823/07 04:34NAKEL23murni besar50,000
2923/07 04:33MASDCmurni kecil50,000
3023/07 04:33JAROTA87murni besar5,000
3123/07 04:33THONGATmurni kecil25,000
3223/07 04:33ALEXX72murni besar5,000
3323/07 04:32KYAY007murni besar50,000
3423/07 04:32JITEM200murni besar50,000
3523/07 04:32MANGON88murni kecil5,000
3623/07 04:31SEKARAYUmurni kecil25,000
3723/07 04:31SAKURA55murni besar5,000
3823/07 04:31KLOKK88lucky9950,000
3923/07 04:30EMANEKOKmurni kecil50,000
4023/07 04:28RATIH357murni besar25,000
4123/07 04:27CMP01balak10,000
4223/07 04:27BHENDOWAbalak100,000
4323/07 04:26T4DHERI87murni besar25,000
4423/07 04:25WAKBU26murni kecil25,000
4523/07 04:23ONANI45murni besar5,000
4623/07 04:22OTMILTImurni besar50,000
4723/07 04:22HUGET212murni kecil50,000
4823/07 04:21AHYAN66murni besar25,000
4923/07 04:20ZUIIImurni kecil50,000
5023/07 04:20HERI77ANDAmurni kecil50,000

Ceme Multi Jackpot System

Jackpot dilihat dari gabungan kartu pemain dengan kartu bandar. Bandar harus membeli jackpot sebanyak jumlah player yang sedang duduk. Sebagai contoh bila terdapat 3 pemain duduk bermain, dan bandar memutuskan untuk membeli jackpot Rp 1.000, maka pada periode tersebut bandar akan membeli jackpot sebanyak 3xRp1.000 = Rp3.000.

Jackpot bukanlah suatu keharusan untuk dibeli, namun kami memberikan suatu fitur tambahan untuk member tercinta dari www.poker868.com.

Terdapat tiga pilihan harga jackpot yang bisa anda beli yaitu :100,500 dan 1000 rupiah.

Hadiah dari Multi jackpot system www.poker868.com

  1. Murni Kecil x 50 harga jackpot yang anda beli.
      (contoh:anda membeli 1000 maka:1000 X 50 = 50.000)
  2. Murni Besar x 50 harga jackpot yang anda beli
      (contoh:anda membeli 1000 maka:1000 X 50 = 50.000)
  3. BALAK x 200 harga jackpot yang anda beli
      (contoh:anda membeli 1000 maka:1000 X 200 = 200.000)
  4. ENAM DEWA x 6666 harga jackpot yang anda beli
      (contoh:anda membeli 1000 maka:1000 X 6666 = 6.666.000)

Demikian adalah penjelasan dari Multi Jackpot www.poker868.com terima kasih dan selamat bermain salam hoki dari kami

Ceme Jackpot Winner

TOP ENAM DEWA
No.TanggalNamaPriceWin
123/07 04:39BFA4CD03murni enam3,333,000
223/07 04:00DADANG999murni enam6,666,000
323/07 04:00ZALLEEmurni enam6,666,000
423/07 03:57D9985484murni enam666,600
523/07 03:39DELTATUmurni enam6,666,000
TOP BALAK
No.TanggalNamaPriceWin
123/07 04:45SEMARKATOBbalak200,000
223/07 04:45NUNUNGOPETbalak200,000
323/07 04:43A6753EBAbalak100,000
423/07 04:43KON2828balak200,000
523/07 04:42REJAMULIA123balak20,000
LATEST JACKPOT
No.TanggalNamaPriceWin
123/07 04:46PENIS07murni besar50,000
223/07 04:45LPTI10murni kecil5,000
323/07 04:45BMASmurni kecil25,000
423/07 04:45TUWIR025murni besar50,000
523/07 04:45SEMARKATOBbalak200,000
623/07 04:45NAVADAAA99murni besar50,000
723/07 04:45A999murni kecil25,000
823/07 04:45WOMEN86murni kecil50,000
923/07 04:45NUNUNGOPETbalak200,000
1023/07 04:45G6LF8HA4U7murni kecil5,000
1123/07 04:45THENFUNGmurni besar25,000
1223/07 04:45AMANKTANKmurni besar50,000
1323/07 04:45HAY_1234murni besar25,000
1423/07 04:45ROYJUNTmurni besar50,000
1523/07 04:44B6ANUOWQNMmurni kecil25,000
1623/07 04:44SINCANSEXmurni kecil25,000
1723/07 04:44HJBS1234murni besar5,000
1823/07 04:44KERENAKVYmurni kecil25,000
1923/07 04:44BOSKUH_JPmurni kecil5,000
2023/07 04:44KRISNAMICHmurni besar50,000
2123/07 04:44SEMARKATOBmurni kecil50,000
2223/07 04:44B0SSCARTELmurni kecil25,000
2323/07 04:43THENFUNGmurni kecil25,000
2423/07 04:43THENFUNGmurni kecil25,000
2523/07 04:43MELODY80murni kecil25,000
2623/07 04:43USWA19murni kecil50,000
2723/07 04:43NKB10murni kecil50,000
2823/07 04:43A6753EBAbalak100,000
2923/07 04:43KON2828balak200,000
3023/07 04:42USWA19murni kecil50,000
3123/07 04:42SEPEDA12murni kecil25,000
3223/07 04:42BSB25TUU2Rmurni kecil25,000
3323/07 04:42AUHUDUAmurni besar50,000
3423/07 04:42REJAMULIA123balak20,000
3523/07 04:42M45F415murni kecil50,000
3623/07 04:41MCXZASmurni besar25,000
3723/07 04:41BOSKUH_JPbalak20,000
3823/07 04:41BEDHOEL_27balak100,000
3923/07 04:41CIERONALmurni besar25,000
4023/07 04:41LB996366murni besar25,000
4123/07 04:41UG0KTM7O6Fbalak200,000
4223/07 04:41DIAMLOEbalak200,000
4323/07 04:41BACUTH4Imurni kecil50,000
4423/07 04:41NCEK_99murni kecil50,000
4523/07 04:40TIGAWANITAmurni kecil50,000
4623/07 04:40N0L4N14murni kecil50,000
4723/07 04:39TURUKSETANbalak200,000
4823/07 04:39DIAMLOEmurni kecil50,000
4923/07 04:39ACEH75murni besar50,000
5023/07 04:39BFA4CD03murni enam3,333,000